Time,TemperatureF,DewpointF,PressureIn,WindDirection,WindDirectionDegrees,WindSpeedMPH,WindSpeedGustMPH,Humidity,HourlyPrecipIn,Conditions,Clouds,dailyrainin,SoftwareType,DateUTC
2013-09-01 00:00:00,71.0,-99.9,-100.00,ENE,70,7.0,10.0,-999,-99.99,,,-99.99,,2013-09-01 06:00:00,
2013-09-01 00:52:00,71.0,-99.9,-100.00,ENE,70,7.0,10.0,-999,-99.99,,,-99.99,,2013-09-01 06:52:00,
2013-09-01 01:00:00,69.0,-99.9,-100.00,NE,48,7.0,8.0,-999,-99.99,,,-99.99,,2013-09-01 07:00:00,
2013-09-01 01:52:00,69.0,-99.9,-100.00,NE,48,7.0,8.0,-999,-99.99,,,-99.99,,2013-09-01 07:52:00,
2013-09-01 02:00:00,68.0,-99.9,-100.00,NE,39,10.0,12.0,-999,-99.99,,,-99.99,,2013-09-01 08:00:00,
2013-09-01 02:52:00,68.0,-99.9,-100.00,NE,39,10.0,12.0,-999,-99.99,,,-99.99,,2013-09-01 08:52:00,
2013-09-01 03:00:00,68.0,-99.9,-100.00,NE,49,8.0,11.0,-999,-99.99,,,-99.99,,2013-09-01 09:00:00,
2013-09-01 03:53:00,68.0,-99.9,-100.00,NE,49,8.0,11.0,-999,-99.99,,,-99.99,,2013-09-01 09:53:00,
2013-09-01 04:00:00,66.0,-99.9,-100.00,NNE,31,8.0,10.0,-999,-99.99,,,-99.99,,2013-09-01 10:00:00,
2013-09-01 04:53:00,66.0,-99.9,-100.00,NNE,31,8.0,10.0,-999,-99.99,,,-99.99,,2013-09-01 10:53:00,
2013-09-01 05:00:00,62.0,-99.9,-100.00,NNE,16,7.0,8.0,-999,-99.99,,,-99.99,,2013-09-01 11:00:00,
2013-09-01 05:52:00,62.0,-99.9,-100.00,NNE,16,7.0,8.0,-999,-99.99,,,-99.99,,2013-09-01 11:52:00,
2013-09-01 06:00:00,62.0,-99.9,-100.00,ESE,105,0.0,4.0,-999,-99.99,,,-99.99,,2013-09-01 12:00:00,
2013-09-01 06:52:00,62.0,-99.9,-100.00,ESE,105,0.0,4.0,-999,-99.99,,,-99.99,,2013-09-01 12:52:00,
2013-09-01 08:00:00,64.0,-99.9,-100.00,NNW,347,2.0,7.0,-999,-99.99,,,-99.99,,2013-09-01 14:00:00,
2013-09-01 08:52:00,64.0,-99.9,-100.00,NNW,347,2.0,7.0,-999,-99.99,,,-99.99,,2013-09-01 14:52:00,
2013-09-01 09:00:00,69.0,-99.9,-100.00,SE,127,3.0,4.0,-999,-99.99,,,-99.99,,2013-09-01 15:00:00,
2013-09-01 09:55:00,69.0,-99.9,-100.00,SE,127,3.0,4.0,-999,-99.99,,,-99.99,,2013-09-01 15:55:00,
2013-09-01 10:00:00,73.0,-99.9,-100.00,SSW,213,6.0,10.0,-999,-99.99,,,-99.99,,2013-09-01 16:00:00,
2013-09-01 10:53:00,73.0,-99.9,-100.00,SSW,213,6.0,10.0,-999,-99.99,,,-99.99,,2013-09-01 16:53:00,
2013-09-01 11:00:00,77.0,-99.9,-100.00,South,180,5.0,10.0,-999,-99.99,,,-99.99,,2013-09-01 17:00:00,
2013-09-01 11:52:00,77.0,-99.9,-100.00,South,180,5.0,10.0,-999,-99.99,,,-99.99,,2013-09-01 17:52:00,
2013-09-01 12:00:00,80.0,-99.9,-100.00,SW,227,1.0,8.0,-999,-99.99,,,-99.99,,2013-09-01 18:00:00,
2013-09-01 12:52:00,80.0,-99.9,-100.00,SW,227,1.0,8.0,-999,-99.99,,,-99.99,,2013-09-01 18:52:00,
2013-09-01 13:00:00,82.0,-99.9,-100.00,SE,146,6.0,12.0,-999,-99.99,,,-99.99,,2013-09-01 19:00:00,
2013-09-01 13:52:00,82.0,-99.9,-100.00,SE,146,6.0,12.0,-999,-99.99,,,-99.99,,2013-09-01 19:52:00,
2013-09-01 14:00:00,84.0,-99.9,-100.00,WSW,247,6.0,14.0,-999,-99.99,,,-99.99,,2013-09-01 20:00:00,
2013-09-01 14:52:00,84.0,-99.9,-100.00,WSW,247,6.0,14.0,-999,-99.99,,,-99.99,,2013-09-01 20:52:00,
2013-09-01 15:00:00,86.0,-99.9,-100.00,South,174,4.0,12.0,-999,-99.99,,,-99.99,,2013-09-01 21:00:00,
2013-09-01 15:55:00,86.0,-99.9,-100.00,South,174,4.0,12.0,-999,-99.99,,,-99.99,,2013-09-01 21:55:00,
2013-09-01 16:00:00,86.0,-99.9,-100.00,SSE,168,4.0,9.0,-999,-99.99,,,-99.99,,2013-09-01 22:00:00,
2013-09-01 16:54:00,86.0,-99.9,-100.00,SSE,168,4.0,9.0,-999,-99.99,,,-99.99,,2013-09-01 22:54:00,
2013-09-01 17:00:00,84.0,-99.9,-100.00,SW,214,8.0,14.0,-999,-99.99,,,-99.99,,2013-09-01 23:00:00,
2013-09-01 17:53:00,84.0,-99.9,-100.00,SW,214,8.0,14.0,-999,-99.99,,,-99.99,,2013-09-01 23:53:00,
2013-09-01 18:00:00,84.0,-99.9,-100.00,South,179,6.0,7.0,-999,-99.99,,,-99.99,,2013-09-02 00:00:00,
2013-09-01 18:52:00,84.0,-99.9,-100.00,South,179,6.0,7.0,-999,-99.99,,,-99.99,,2013-09-02 00:52:00,
2013-09-01 19:00:00,84.0,-99.9,-100.00,WSW,250,10.0,10.0,-999,-99.99,,,-99.99,,2013-09-02 01:00:00,
2013-09-01 19:53:00,84.0,-99.9,-100.00,WSW,250,10.0,10.0,-999,-99.99,,,-99.99,,2013-09-02 01:53:00,
2013-09-01 20:00:00,77.0,-99.9,-100.00,ESE,121,1.0,9.0,-999,-99.99,,,-99.99,,2013-09-02 02:00:00,
2013-09-01 20:52:00,77.0,-99.9,-100.00,ESE,121,1.0,9.0,-999,-99.99,,,-99.99,,2013-09-02 02:52:00,
2013-09-01 21:00:00,71.0,-99.9,-100.00,ENE,72,0.0,2.0,-999,-99.99,,,-99.99,,2013-09-02 03:00:00,
2013-09-01 21:56:00,71.0,-99.9,-100.00,ENE,72,0.0,2.0,-999,-99.99,,,-99.99,,2013-09-02 03:56:00,
2013-09-01 22:00:00,68.0,-99.9,-100.00,East,86,6.0,7.0,-999,-99.99,,,-99.99,,2013-09-02 04:00:00,
2013-09-01 22:54:00,68.0,-99.9,-100.00,East,86,6.0,7.0,-999,-99.99,,,-99.99,,2013-09-02 04:54:00,
2013-09-01 23:00:00,64.0,-99.9,-100.00,East,82,4.0,6.0,-999,-99.99,,,-99.99,,2013-09-02 05:00:00,
2013-09-01 23:52:00,64.0,-99.9,-100.00,East,82,4.0,6.0,-999,-99.99,,,-99.99,,2013-09-02 05:52:00,